{"data":{"norad_id":58948,"intl_designator":"2024-027T","name":"STARLINK-31311","alt_names":[],"object_type":"PAYLOAD","status":"ACTIVE","operator":null,"country":"US","launch_date":"2024-02-10","launch_site_code":"AFWTR","launch_vehicle":null,"mission":null,"orbit_class":"UNKNOWN","rcs_meters":null,"size_class":null,"mass_kg":null,"dimensions":null,"purposes":["comms"],"wikipedia_slug":null,"has_3d_model":false,"image_url":null,"decayed_at":null,"tle_current":{"epoch":"2026-09-20T21:33:34.928352Z","epoch_age_seconds":121317,"freshness":"FRESH","line1":"1 58948U 24027T   26263.89832093  .00000816  00000+0  35285-4 0  9991","line2":"2 58948  53.1605 119.4966 0001427  82.4646 277.6518 15.34396906147268","mean_motion":15.34396906,"eccentricity":0.0001427,"inclination_deg":53.1605,"raan_deg":119.4966,"arg_perigee_deg":82.4646,"mean_anomaly_deg":277.6518,"bstar":3.5285e-5,"rev_number":14726,"period_min":93.847947318528,"perigee_km":461.73624702804,"apogee_km":463.68862545714,"semimajor_km":6840.8494362426,"source":"CELESTRAK","updated_at":"2026-09-21T09:00:33.999530Z"}}}